Time,TemperatureF,DewpointF,PressureIn,WindDirection,WindDirectionDegrees,WindSpeedMPH,WindSpeedGustMPH,Humidity,HourlyPrecipIn,Conditions,Clouds,dailyrainin,SoftwareType,DateUTC
2013-04-15 00:01:00,51.3,40.3,29.53,North,0,0.0,0.0,66,0.00,,,-99.99,VWS V12.07,2013-04-15 05:01:00,
2013-04-15 00:10:00,51.3,40.3,29.50,North,0,0.0,0.0,66,0.00,,,-99.99,VWS V12.07,2013-04-15 05:10:00,
2013-04-15 00:15:00,51.3,40.3,29.50,North,0,0.0,0.0,66,0.00,,,-99.99,VWS V12.07,2013-04-15 05:15:00,
2013-04-15 00:25:00,51.3,39.9,29.50,North,0,0.0,0.0,65,0.00,,,-99.99,VWS V12.07,2013-04-15 05:25:00,
2013-04-15 00:31:00,51.3,39.9,29.50,North,0,0.0,0.0,65,0.00,,,-99.99,VWS V12.07,2013-04-15 05:31:00,
2013-04-15 00:40:00,51.3,39.9,29.53,North,0,0.0,0.0,65,0.00,,,-99.99,VWS V12.07,2013-04-15 05:40:00,
2013-04-15 00:45:00,51.3,39.5,29.53,North,0,0.0,0.0,64,0.00,,,-99.99,VWS V12.07,2013-04-15 05:45:00,
2013-04-15 00:50:00,51.4,39.7,29.53,North,0,0.0,0.0,64,0.00,,,-99.99,VWS V12.07,2013-04-15 05:50:00,
2013-04-15 00:56:00,51.6,39.8,29.53,North,0,0.0,0.0,64,0.00,,,-99.99,VWS V12.07,2013-04-15 05:56:00,
2013-04-15 01:05:00,52.7,40.5,29.53,North,0,0.0,0.0,63,0.00,,,-99.99,VWS V12.07,2013-04-15 06:05:00,
2013-04-15 01:10:00,53.4,40.7,29.53,North,0,0.0,0.0,62,0.00,,,-99.99,VWS V12.07,2013-04-15 06:10:00,
2013-04-15 01:15:00,54.3,40.8,29.53,North,0,0.0,0.0,60,0.00,,,-99.99,VWS V12.07,2013-04-15 06:15:00,
2013-04-15 01:20:00,55.4,40.9,29.53,North,0,0.0,0.0,58,0.00,,,-99.99,VWS V12.07,2013-04-15 06:20:00,
2013-04-15 01:25:00,56.8,40.4,29.53,North,0,0.0,0.0,54,0.00,,,-99.99,VWS V12.07,2013-04-15 06:25:00,
2013-04-15 01:35:00,59.4,38.6,29.53,North,0,0.0,0.0,46,0.00,,,-99.99,VWS V12.07,2013-04-15 06:35:00,
2013-04-15 01:40:00,60.1,38.7,29.53,North,0,0.0,0.0,45,0.00,,,-99.99,VWS V12.07,2013-04-15 06:40:00,
2013-04-15 01:45:00,60.4,38.4,29.53,North,0,0.0,0.0,44,0.00,,,-99.99,VWS V12.07,2013-04-15 06:45:00,
2013-04-15 01:50:00,60.6,38.6,29.53,North,0,0.0,0.0,44,0.00,,,-99.99,VWS V12.07,2013-04-15 06:50:00,
2013-04-15 01:56:00,60.4,39.6,29.53,North,0,0.0,0.0,46,0.00,,,-99.99,VWS V12.07,2013-04-15 06:56:00,
2013-04-15 02:05:00,58.1,43.4,29.56,North,0,0.0,0.0,58,0.00,,,-99.99,VWS V12.07,2013-04-15 07:05:00,
2013-04-15 02:45:00,55.8,47.6,29.56,North,0,0.0,0.0,74,0.00,,,-99.99,VWS V12.07,2013-04-15 07:45:00,
2013-04-15 02:50:00,55.6,47.4,29.56,North,0,0.0,0.0,74,0.00,,,-99.99,VWS V12.07,2013-04-15 07:50:00,
2013-04-15 03:00:00,55.2,47.5,29.56,North,0,0.0,0.0,75,0.00,,,-99.99,VWS V12.07,2013-04-15 08:00:00,
2013-04-15 03:10:00,54.9,47.5,29.56,North,0,0.0,0.0,76,0.00,,,-99.99,VWS V12.07,2013-04-15 08:10:00,
2013-04-15 03:15:00,54.7,47.6,29.56,North,0,0.0,0.0,77,0.00,,,-99.99,VWS V12.07,2013-04-15 08:15:00,
2013-04-15 03:20:00,54.9,47.8,29.56,North,0,0.0,0.0,77,0.00,,,-99.99,VWS V12.07,2013-04-15 08:20:00,
2013-04-15 03:25:00,54.7,48.0,29.56,North,0,0.0,0.0,78,0.00,,,-99.99,VWS V12.07,2013-04-15 08:25:00,
2013-04-15 03:35:00,54.5,47.8,29.56,North,0,0.0,0.0,78,0.00,,,-99.99,VWS V12.07,2013-04-15 08:35:00,
2013-04-15 03:40:00,54.5,48.1,29.56,North,0,0.0,0.0,79,0.00,,,-99.99,VWS V12.07,2013-04-15 08:40:00,
2013-04-15 03:45:00,54.3,48.0,29.56,North,0,0.0,0.0,79,0.00,,,-99.99,VWS V12.07,2013-04-15 08:45:00,
2013-04-15 03:50:00,54.1,48.1,29.56,North,0,0.0,0.0,80,0.00,,,-99.99,VWS V12.07,2013-04-15 08:50:00,
2013-04-15 03:55:00,54.1,48.1,29.56,North,0,0.0,0.0,80,0.00,,,-99.99,VWS V12.07,2013-04-15 08:55:00,
2013-04-15 04:05:00,54.0,48.3,29.59,North,0,0.0,0.0,81,0.00,,,-99.99,VWS V12.07,2013-04-15 09:05:00,
2013-04-15 04:10:00,53.8,48.1,29.59,North,0,0.0,0.0,81,0.00,,,-99.99,VWS V12.07,2013-04-15 09:10:00,
2013-04-15 04:15:00,53.6,48.2,29.59,North,0,0.0,0.0,82,0.00,,,-99.99,VWS V12.07,2013-04-15 09:15:00,
2013-04-15 04:20:00,53.6,48.2,29.59,North,0,0.0,0.0,82,0.00,,,-99.99,VWS V12.07,2013-04-15 09:20:00,
2013-04-15 04:26:00,53.6,48.2,29.59,North,0,0.0,0.0,82,0.00,,,-99.99,VWS V12.07,2013-04-15 09:26:00,
2013-04-15 04:30:00,53.6,48.2,29.59,North,0,0.0,0.0,82,0.00,,,-99.99,VWS V12.07,2013-04-15 09:30:00,
2013-04-15 04:35:00,53.6,48.2,29.62,North,0,0.0,0.0,82,0.00,,,-99.99,VWS V12.07,2013-04-15 09:35:00,
2013-04-15 04:40:00,53.6,48.6,29.62,North,0,0.0,0.0,83,0.04,,,-99.99,VWS V12.07,2013-04-15 09:40:00,
2013-04-15 04:45:00,53.6,48.6,29.62,North,0,0.0,0.0,83,0.04,,,-99.99,VWS V12.07,2013-04-15 09:45:00,
2013-04-15 04:50:00,53.4,48.4,29.62,North,0,0.0,0.0,83,0.04,,,-99.99,VWS V12.07,2013-04-15 09:50:00,
2013-04-15 04:56:00,53.4,48.7,29.62,North,0,0.0,0.0,84,0.04,,,-99.99,VWS V12.07,2013-04-15 09:56:00,
2013-04-15 05:05:00,53.2,48.5,29.62,North,0,0.0,0.0,84,0.04,,,-99.99,VWS V12.07,2013-04-15 10:05:00,
2013-04-15 05:10:00,53.2,48.5,29.62,North,0,0.0,0.0,84,0.04,,,-99.99,VWS V12.07,2013-04-15 10:10:00,
2013-04-15 05:15:00,53.1,48.4,29.62,North,0,0.0,0.0,84,0.04,,,-99.99,VWS V12.07,2013-04-15 10:15:00,
2013-04-15 05:20:00,52.9,48.2,29.59,North,0,0.0,0.0,84,0.04,,,-99.99,VWS V12.07,2013-04-15 10:20:00,
2013-04-15 05:25:00,52.9,48.5,29.59,North,0,0.0,0.0,85,0.04,,,-99.99,VWS V12.07,2013-04-15 10:25:00,
2013-04-15 05:31:00,52.9,48.5,29.59,North,0,0.0,0.0,85,0.04,,,-99.99,VWS V12.07,2013-04-15 10:31:00,
2013-04-15 05:40:00,52.7,48.3,29.62,North,0,0.0,0.0,85,0.04,,,-99.99,VWS V12.07,2013-04-15 10:40:00,
2013-04-15 05:45:00,52.5,48.2,29.62,North,0,0.0,0.0,85,0.04,,,-99.99,VWS V12.07,2013-04-15 10:45:00,
2013-04-15 05:50:00,52.5,48.2,29.62,North,0,0.0,0.0,85,0.04,,,-99.99,VWS V12.07,2013-04-15 10:50:00,
2013-04-15 05:55:00,52.3,48.0,29.62,North,0,0.0,0.0,85,0.04,,,-99.99,VWS V12.07,2013-04-15 10:55:00,
2013-04-15 06:05:00,52.3,48.0,29.59,North,0,0.0,0.0,85,0.00,,,-99.99,VWS V12.07,2013-04-15 11:05:00,
2013-04-15 06:10:00,52.3,48.3,29.59,North,0,0.0,0.0,86,0.00,,,-99.99,VWS V12.07,2013-04-15 11:10:00,
2013-04-15 06:20:00,52.3,48.3,29.62,North,0,0.0,0.0,86,0.00,,,-99.99,VWS V12.07,2013-04-15 11:20:00,
2013-04-15 06:25:00,52.3,48.3,29.62,North,0,0.0,0.0,86,0.00,,,-99.99,VWS V12.07,2013-04-15 11:25:00,
2013-04-15 06:30:00,52.3,48.3,29.62,North,0,0.0,0.0,86,0.00,,,-99.99,VWS V12.07,2013-04-15 11:30:00,
2013-04-15 06:35:00,52.3,48.3,29.62,North,0,0.0,0.0,86,0.00,,,-99.99,VWS V12.07,2013-04-15 11:35:00,
2013-04-15 06:40:00,52.3,48.6,29.62,North,0,0.0,0.0,87,0.00,,,-99.99,VWS V12.07,2013-04-15 11:40:00,
2013-04-15 06:45:00,52.3,48.6,29.62,North,0,0.0,0.0,87,0.00,,,-99.99,VWS V12.07,2013-04-15 11:45:00,
2013-04-15 06:55:00,52.5,48.8,29.62,North,0,0.0,0.0,87,0.00,,,-99.99,VWS V12.07,2013-04-15 11:55:00,
2013-04-15 07:00:00,52.5,48.8,29.62,North,0,0.0,0.0,87,0.00,,,-99.99,VWS V12.07,2013-04-15 12:00:00,
2013-04-15 07:05:00,52.5,48.8,29.62,North,0,0.0,0.0,87,0.00,,,-99.99,VWS V12.07,2013-04-15 12:05:00,
2013-04-15 07:10:00,52.5,48.8,29.62,North,0,0.0,0.0,87,0.00,,,-99.99,VWS V12.07,2013-04-15 12:10:00,
2013-04-15 07:21:00,52.5,48.8,29.65,North,0,0.0,0.0,87,0.00,,,-99.99,VWS V12.07,2013-04-15 12:21:00,
2013-04-15 07:30:00,52.5,49.1,29.65,North,0,0.0,0.0,88,0.00,,,-99.99,VWS V12.07,2013-04-15 12:30:00,
2013-04-15 07:35:00,52.3,48.9,29.65,North,0,0.0,0.0,88,0.00,,,-99.99,VWS V12.07,2013-04-15 12:35:00,
2013-04-15 07:40:00,52.3,48.9,29.65,North,0,0.0,0.0,88,0.00,,,-99.99,VWS V12.07,2013-04-15 12:40:00,
2013-04-15 07:45:00,52.5,49.1,29.65,North,0,0.0,0.0,88,0.00,,,-99.99,VWS V12.07,2013-04-15 12:45:00,
2013-04-15 07:55:00,52.7,49.2,29.65,North,0,0.0,0.0,88,0.00,,,-99.99,VWS V12.07,2013-04-15 12:55:00,
2013-04-15 08:00:00,52.9,49.4,29.65,North,0,0.0,0.0,88,0.00,,,-99.99,VWS V12.07,2013-04-15 13:00:00,
2013-04-15 08:05:00,52.9,49.4,29.65,North,0,0.0,0.0,88,0.00,,,-99.99,VWS V12.07,2013-04-15 13:05:00,
2013-04-15 08:10:00,52.9,49.4,29.65,North,0,0.0,0.0,88,0.00,,,-99.99,VWS V12.07,2013-04-15 13:10:00,
2013-04-15 08:16:00,52.9,49.4,29.65,North,0,0.0,0.0,88,0.00,,,-99.99,VWS V12.07,2013-04-15 13:16:00,
2013-04-15 08:25:00,52.7,49.2,29.65,North,0,0.0,0.0,88,0.00,,,-99.99,VWS V12.07,2013-04-15 13:25:00,
2013-04-15 08:30:00,52.7,49.2,29.65,North,0,0.0,0.0,88,0.00,,,-99.99,VWS V12.07,2013-04-15 13:30:00,
2013-04-15 08:35:00,52.7,49.2,29.65,North,0,0.0,0.0,88,0.00,,,-99.99,VWS V12.07,2013-04-15 13:35:00,
2013-04-15 08:41:00,52.7,49.2,29.65,North,0,0.0,0.0,88,0.00,,,-99.99,VWS V12.07,2013-04-15 13:41:00,
2013-04-15 08:50:00,52.7,49.2,29.65,North,0,0.0,0.0,88,0.00,,,-99.99,VWS V12.07,2013-04-15 13:50:00,
2013-04-15 08:55:00,52.9,49.4,29.65,North,0,0.0,0.0,88,0.00,,,-99.99,VWS V12.07,2013-04-15 13:55:00,
2013-04-15 09:05:00,53.1,49.9,29.65,North,0,0.0,0.0,89,0.00,,,-99.99,VWS V12.07,2013-04-15 14:05:00,
2013-04-15 09:11:00,53.2,50.1,29.65,North,0,0.0,0.0,89,0.00,,,-99.99,VWS V12.07,2013-04-15 14:11:00,
2013-04-15 09:20:00,53.6,50.1,29.65,North,0,0.0,0.0,88,0.00,,,-99.99,VWS V12.07,2013-04-15 14:20:00,
2013-04-15 09:25:00,53.8,50.6,29.65,North,0,0.0,0.0,89,0.00,,,-99.99,VWS V12.07,2013-04-15 14:25:00,
2013-04-15 09:30:00,54.1,51.0,29.65,North,0,0.0,0.0,89,0.00,,,-99.99,VWS V12.07,2013-04-15 14:30:00,
2013-04-15 09:41:00,54.3,50.8,29.65,North,0,0.0,0.0,88,0.00,,,-99.99,VWS V12.07,2013-04-15 14:41:00,
2013-04-15 09:50:00,54.7,51.2,29.65,North,0,0.0,0.0,88,0.00,,,-99.99,VWS V12.07,2013-04-15 14:50:00,
2013-04-15 10:00:00,54.9,51.1,29.65,North,0,0.0,0.0,87,0.00,,,-99.99,VWS V12.07,2013-04-15 15:00:00,
2013-04-15 10:11:00,55.4,50.7,29.67,North,0,0.0,0.0,84,0.00,,,-99.99,VWS V12.07,2013-04-15 15:11:00,
2013-04-15 10:20:00,55.9,50.5,29.67,North,0,0.0,0.0,82,0.00,,,-99.99,VWS V12.07,2013-04-15 15:20:00,
2013-04-15 10:25:00,56.1,50.0,29.67,North,0,0.0,0.0,80,0.00,,,-99.99,VWS V12.07,2013-04-15 15:25:00,
2013-04-15 10:40:00,56.7,47.4,29.67,North,0,0.0,0.0,71,0.00,,,-99.99,VWS V12.07,2013-04-15 15:40:00,
2013-04-15 10:45:00,56.8,47.2,29.67,North,0,0.0,0.0,70,0.00,,,-99.99,VWS V12.07,2013-04-15 15:45:00,
2013-04-15 10:50:00,57.0,47.0,29.65,North,0,0.0,0.0,69,0.00,,,-99.99,VWS V12.07,2013-04-15 15:50:00,
2013-04-15 10:55:00,57.2,46.8,29.65,North,0,0.0,0.0,68,0.00,,,-99.99,VWS V12.07,2013-04-15 15:55:00,
2013-04-15 11:00:00,57.4,46.9,29.65,North,0,0.0,0.0,68,0.00,,,-99.99,VWS V12.07,2013-04-15 16:00:00,
2013-04-15 11:11:00,57.6,46.3,29.65,North,0,0.0,0.0,66,0.00,,,-99.99,VWS V12.07,2013-04-15 16:11:00,
2013-04-15 11:20:00,57.6,44.7,29.67,North,0,0.0,0.0,62,0.00,,,-99.99,VWS V12.07,2013-04-15 16:20:00,
2013-04-15 11:25:00,57.6,44.2,29.67,North,0,0.0,0.0,61,0.00,,,-99.99,VWS V12.07,2013-04-15 16:25:00,
2013-04-15 11:30:00,57.7,44.4,29.67,North,0,0.0,0.0,61,0.00,,,-99.99,VWS V12.07,2013-04-15 16:30:00,
2013-04-15 11:35:00,57.9,44.6,29.67,North,0,0.0,0.0,61,0.00,,,-99.99,VWS V12.07,2013-04-15 16:35:00,
2013-04-15 11:40:00,58.1,44.3,29.67,North,0,0.0,0.0,60,0.00,,,-99.99,VWS V12.07,2013-04-15 16:40:00,
2013-04-15 11:50:00,58.1,43.4,29.67,North,0,0.0,0.0,58,0.00,,,-99.99,VWS V12.07,2013-04-15 16:50:00,
2013-04-15 11:55:00,58.1,43.0,29.67,North,0,0.0,0.0,57,0.00,,,-99.99,VWS V12.07,2013-04-15 16:55:00,
2013-04-15 12:00:00,58.1,43.0,29.67,North,0,0.0,0.0,57,0.00,,,-99.99,VWS V12.07,2013-04-15 17:00:00,
2013-04-15 12:05:00,58.3,43.6,29.67,North,0,0.0,0.0,58,0.00,,,-99.99,VWS V12.07,2013-04-15 17:05:00,
2013-04-15 12:10:00,58.3,43.1,29.67,North,0,0.0,0.0,57,0.00,,,-99.99,VWS V12.07,2013-04-15 17:10:00,
2013-04-15 12:15:00,58.3,43.1,29.67,North,0,0.0,0.0,57,0.00,,,-99.99,VWS V12.07,2013-04-15 17:15:00,
2013-04-15 12:20:00,58.6,43.5,29.67,North,0,0.0,0.0,57,0.00,,,-99.99,VWS V12.07,2013-04-15 17:20:00,
2013-04-15 12:25:00,58.8,43.2,29.67,North,0,0.0,0.0,56,0.00,,,-99.99,VWS V12.07,2013-04-15 17:25:00,
2013-04-15 12:40:00,59.4,41.8,29.65,North,0,0.0,0.0,52,0.00,,,-99.99,VWS V12.07,2013-04-15 17:40:00,
2013-04-15 12:45:00,59.4,41.2,29.65,North,0,0.0,0.0,51,0.00,,,-99.99,VWS V12.07,2013-04-15 17:45:00,
2013-04-15 12:50:00,59.5,41.4,29.67,North,0,0.0,0.0,51,0.00,,,-99.99,VWS V12.07,2013-04-15 17:50:00,
2013-04-15 12:55:00,60.1,40.9,29.67,North,0,0.0,0.0,49,0.00,,,-99.99,VWS V12.07,2013-04-15 17:55:00,
2013-04-15 13:00:00,60.6,41.4,29.67,North,0,0.0,0.0,49,0.00,,,-99.99,VWS V12.07,2013-04-15 18:00:00,
2013-04-15 13:10:00,60.8,39.3,29.67,North,0,0.0,0.0,45,0.00,,,-99.99,VWS V12.07,2013-04-15 18:10:00,
2013-04-15 13:20:00,61.0,39.5,29.67,North,0,0.0,0.0,45,0.00,,,-99.99,VWS V12.07,2013-04-15 18:20:00,
2013-04-15 13:25:00,60.8,39.3,29.67,North,0,0.0,0.0,45,0.00,,,-99.99,VWS V12.07,2013-04-15 18:25:00,
2013-04-15 13:30:00,60.6,39.8,29.67,North,0,0.0,0.0,46,0.00,,,-99.99,VWS V12.07,2013-04-15 18:30:00,
2013-04-15 13:35:00,60.4,40.1,29.67,North,0,0.0,0.0,47,0.00,,,-99.99,VWS V12.07,2013-04-15 18:35:00,
2013-04-15 13:40:00,60.4,40.1,29.67,North,0,0.0,0.0,47,0.00,,,-99.99,VWS V12.07,2013-04-15 18:40:00,
2013-04-15 13:46:00,61.2,40.8,29.67,North,0,0.0,0.0,47,0.00,,,-99.99,VWS V12.07,2013-04-15 18:46:00,
2013-04-15 13:55:00,61.5,39.4,29.67,North,0,0.0,0.0,44,0.00,,,-99.99,VWS V12.07,2013-04-15 18:55:00,
2013-04-15 14:00:00,61.7,39.0,29.67,North,0,0.0,0.0,43,0.00,,,-99.99,VWS V12.07,2013-04-15 19:00:00,
2013-04-15 14:05:00,61.7,38.4,29.67,North,0,0.0,0.0,42,0.00,,,-99.99,VWS V12.07,2013-04-15 19:05:00,
2013-04-15 14:11:00,61.9,38.6,29.67,North,0,0.0,0.0,42,0.00,,,-99.99,VWS V12.07,2013-04-15 19:11:00,
2013-04-15 14:20:00,62.6,36.0,29.67,North,0,0.0,0.0,37,0.00,,,-99.99,VWS V12.07,2013-04-15 19:20:00,
2013-04-15 14:25:00,62.6,36.0,29.67,North,0,0.0,0.0,37,0.00,,,-99.99,VWS V12.07,2013-04-15 19:25:00,
2013-04-15 14:30:00,62.2,36.3,29.67,North,0,0.0,0.0,38,0.00,,,-99.99,VWS V12.07,2013-04-15 19:30:00,
2013-04-15 14:35:00,61.9,36.0,29.70,North,0,0.0,0.0,38,0.00,,,-99.99,VWS V12.07,2013-04-15 19:35:00,
2013-04-15 14:45:00,61.7,35.2,29.70,North,0,0.0,0.0,37,0.00,,,-99.99,VWS V12.07,2013-04-15 19:45:00,
2013-04-15 14:50:00,61.3,34.9,29.70,North,0,0.0,0.0,37,0.00,,,-99.99,VWS V12.07,2013-04-15 19:50:00,
2013-04-15 14:55:00,61.0,33.9,29.70,North,0,0.0,0.0,36,0.00,,,-99.99,VWS V12.07,2013-04-15 19:55:00,
2013-04-15 15:00:00,60.8,33.0,29.70,North,0,0.0,0.0,35,0.00,,,-99.99,VWS V12.07,2013-04-15 20:00:00,
2013-04-15 15:05:00,60.6,32.8,29.70,North,0,0.0,0.0,35,0.00,,,-99.99,VWS V12.07,2013-04-15 20:05:00,
2013-04-15 15:10:00,60.6,32.1,29.70,North,0,0.0,0.0,34,0.00,,,-99.99,VWS V12.07,2013-04-15 20:10:00,
2013-04-15 15:15:00,60.4,31.2,29.70,North,0,0.0,0.0,33,0.00,,,-99.99,VWS V12.07,2013-04-15 20:15:00,
2013-04-15 15:20:00,60.1,30.1,29.70,North,0,0.0,0.0,32,0.00,,,-99.99,VWS V12.07,2013-04-15 20:20:00,
2013-04-15 15:25:00,59.7,30.6,29.70,North,0,0.0,0.0,33,0.00,,,-99.99,VWS V12.07,2013-04-15 20:25:00,
2013-04-15 15:30:00,59.2,30.9,29.70,North,0,0.0,0.0,34,0.00,,,-99.99,VWS V12.07,2013-04-15 20:30:00,
2013-04-15 15:35:00,59.0,30.7,29.73,North,0,0.0,0.0,34,0.00,,,-99.99,VWS V12.07,2013-04-15 20:35:00,
2013-04-15 15:40:00,58.6,31.1,29.73,North,0,0.0,0.0,35,0.00,,,-99.99,VWS V12.07,2013-04-15 20:40:00,
2013-04-15 15:45:00,58.3,30.8,29.73,North,0,0.0,0.0,35,0.00,,,-99.99,VWS V12.07,2013-04-15 20:45:00,
2013-04-15 15:50:00,57.9,30.5,29.73,North,0,0.0,0.0,35,0.00,,,-99.99,VWS V12.07,2013-04-15 20:50:00,
2013-04-15 15:55:00,57.6,30.1,29.73,North,0,0.0,0.0,35,0.00,,,-99.99,VWS V12.07,2013-04-15 20:55:00,
2013-04-15 16:00:00,57.2,29.8,29.73,North,0,0.0,0.0,35,0.00,,,-99.99,VWS V12.07,2013-04-15 21:00:00,
2013-04-15 16:06:00,57.0,29.7,29.73,North,0,0.0,0.0,35,0.00,,,-99.99,VWS V12.07,2013-04-15 21:06:00,
2013-04-15 16:15:00,56.8,27.3,29.73,North,0,0.0,0.0,32,0.00,,,-99.99,VWS V12.07,2013-04-15 21:15:00,
2013-04-15 16:20:00,56.7,27.2,29.73,North,0,0.0,0.0,32,0.00,,,-99.99,VWS V12.07,2013-04-15 21:20:00,
2013-04-15 16:25:00,56.3,26.8,29.73,North,0,0.0,0.0,32,0.00,,,-99.99,VWS V12.07,2013-04-15 21:25:00,
2013-04-15 16:30:00,56.1,26.7,29.73,North,0,0.0,0.0,32,0.00,,,-99.99,VWS V12.07,2013-04-15 21:30:00,
2013-04-15 16:40:00,55.2,28.1,29.73,North,0,0.0,0.0,35,0.00,,,-99.99,VWS V12.07,2013-04-15 21:40:00,
2013-04-15 16:45:00,55.0,27.9,29.73,North,0,0.0,0.0,35,0.00,,,-99.99,VWS V12.07,2013-04-15 21:45:00,
2013-04-15 16:50:00,54.9,27.8,29.73,North,0,0.0,0.0,35,0.00,,,-99.99,VWS V12.07,2013-04-15 21:50:00,
2013-04-15 16:55:00,54.5,28.1,29.73,North,0,0.0,0.0,36,0.00,,,-99.99,VWS V12.07,2013-04-15 21:55:00,
2013-04-15 17:00:00,54.3,28.0,29.73,North,0,0.0,0.0,36,0.00,,,-99.99,VWS V12.07,2013-04-15 22:00:00,
2013-04-15 17:06:00,54.0,28.3,29.76,North,0,0.0,0.0,37,0.00,,,-99.99,VWS V12.07,2013-04-15 22:06:00,
2013-04-15 17:15:00,52.7,29.1,29.76,North,0,0.0,0.0,40,0.00,,,-99.99,VWS V12.07,2013-04-15 22:15:00,
2013-04-15 17:20:00,52.0,29.6,29.76,North,0,0.0,0.0,42,0.00,,,-99.99,VWS V12.07,2013-04-15 22:20:00,
2013-04-15 17:25:00,51.4,29.7,29.76,North,0,0.0,0.0,43,0.00,,,-99.99,VWS V12.07,2013-04-15 22:25:00,
2013-04-15 17:31:00,51.1,30.0,29.76,North,0,0.0,0.0,44,0.00,,,-99.99,VWS V12.07,2013-04-15 22:31:00,
2013-04-15 17:40:00,50.4,30.4,29.79,North,0,0.0,0.0,46,0.00,,,-99.99,VWS V12.07,2013-04-15 22:40:00,
2013-04-15 17:45:00,50.2,30.2,29.79,North,0,0.0,0.0,46,0.00,,,-99.99,VWS V12.07,2013-04-15 22:45:00,
2013-04-15 17:50:00,50.2,30.8,29.79,North,0,0.0,0.0,47,0.00,,,-99.99,VWS V12.07,2013-04-15 22:50:00,
2013-04-15 17:55:00,49.8,30.9,29.79,North,0,0.0,0.0,48,0.00,,,-99.99,VWS V12.07,2013-04-15 22:55:00,
2013-04-15 18:00:00,49.6,30.8,29.79,North,0,0.0,0.0,48,0.00,,,-99.99,VWS V12.07,2013-04-15 23:00:00,
2013-04-15 18:10:00,48.9,31.6,29.76,North,0,0.0,0.0,51,0.00,,,-99.99,VWS V12.07,2013-04-15 23:10:00,
2013-04-15 18:15:00,48.7,32.4,29.76,North,0,0.0,0.0,53,0.00,,,-99.99,VWS V12.07,2013-04-15 23:15:00,
2013-04-15 18:20:00,48.4,32.0,29.76,North,0,0.0,0.0,53,0.00,,,-99.99,VWS V12.07,2013-04-15 23:20:00,
2013-04-15 18:25:00,47.7,33.2,29.76,North,0,0.0,0.0,57,0.00,,,-99.99,VWS V12.07,2013-04-15 23:25:00,
2013-04-15 18:31:00,47.3,33.3,29.76,North,0,0.0,0.0,58,0.00,,,-99.99,VWS V12.07,2013-04-15 23:31:00,
2013-04-15 18:40:00,46.9,33.8,29.76,North,0,0.0,0.0,60,0.04,,,-99.99,VWS V12.07,2013-04-15 23:40:00,
2013-04-15 18:45:00,46.9,34.2,29.76,North,0,0.0,0.0,61,0.04,,,-99.99,VWS V12.07,2013-04-15 23:45:00,
2013-04-15 18:50:00,46.9,34.6,29.76,North,0,0.0,0.0,62,0.04,,,-99.99,VWS V12.07,2013-04-15 23:50:00,
2013-04-15 18:55:00,46.8,34.8,29.76,North,0,0.0,0.0,63,0.04,,,-99.99,VWS V12.07,2013-04-15 23:55:00,
2013-04-15 19:01:00,46.6,35.1,29.76,North,0,0.0,0.0,64,0.04,,,-99.99,VWS V12.07,2013-04-16 00:01:00,
2013-04-15 19:10:00,46.0,35.7,29.76,North,0,0.0,0.0,67,0.04,,,-99.99,VWS V12.07,2013-04-16 00:10:00,
2013-04-15 19:15:00,45.9,35.9,29.76,North,0,0.0,0.0,68,0.04,,,-99.99,VWS V12.07,2013-04-16 00:15:00,
2013-04-15 19:20:00,45.7,35.7,29.76,North,0,0.0,0.0,68,0.04,,,-99.99,VWS V12.07,2013-04-16 00:20:00,
2013-04-15 19:25:00,45.5,35.9,29.76,North,0,0.0,0.0,69,0.08,,,-99.99,VWS V12.07,2013-04-16 00:25:00,
2013-04-15 19:30:00,45.5,36.3,29.76,North,0,0.0,0.0,70,0.08,,,-99.99,VWS V12.07,2013-04-16 00:30:00,
2013-04-15 19:35:00,45.5,36.7,29.76,North,0,0.0,0.0,71,0.08,,,-99.99,VWS V12.07,2013-04-16 00:35:00,
2013-04-15 19:45:00,45.7,37.2,29.76,North,0,0.0,0.0,72,0.08,,,-99.99,VWS V12.07,2013-04-16 00:45:00,
2013-04-15 19:50:00,45.7,37.5,29.76,North,0,0.0,0.0,73,0.08,,,-99.99,VWS V12.07,2013-04-16 00:50:00,
2013-04-15 19:55:00,45.5,37.4,29.76,North,0,0.0,0.0,73,0.08,,,-99.99,VWS V12.07,2013-04-16 00:55:00,
2013-04-15 20:00:00,45.5,37.7,29.76,North,0,0.0,0.0,74,0.04,,,-99.99,VWS V12.07,2013-04-16 01:00:00,
2013-04-15 20:10:00,45.5,37.7,29.76,North,0,0.0,0.0,74,0.08,,,-99.99,VWS V12.07,2013-04-16 01:10:00,
2013-04-15 20:15:00,45.5,37.7,29.76,North,0,0.0,0.0,74,0.08,,,-99.99,VWS V12.07,2013-04-16 01:15:00,
2013-04-15 20:20:00,45.5,38.0,29.76,North,0,0.0,0.0,75,0.08,,,-99.99,VWS V12.07,2013-04-16 01:20:00,
2013-04-15 20:25:00,45.5,38.0,29.76,North,0,0.0,0.0,75,0.08,,,-99.99,VWS V12.07,2013-04-16 01:25:00,
2013-04-15 20:31:00,45.3,37.9,29.76,North,0,0.0,0.0,75,0.08,,,-99.99,VWS V12.07,2013-04-16 01:31:00,
2013-04-15 20:40:00,45.1,37.7,29.79,North,0,0.0,0.0,75,0.08,,,-99.99,VWS V12.07,2013-04-16 01:40:00,
2013-04-15 20:45:00,45.1,38.0,29.79,North,0,0.0,0.0,76,0.12,,,-99.99,VWS V12.07,2013-04-16 01:45:00,
2013-04-15 20:50:00,45.1,38.0,29.79,North,0,0.0,0.0,76,0.12,,,-99.99,VWS V12.07,2013-04-16 01:50:00,
2013-04-15 20:55:00,45.0,37.9,29.79,North,0,0.0,0.0,76,0.12,,,-99.99,VWS V12.07,2013-04-16 01:55:00,
2013-04-15 21:01:00,44.8,37.7,29.79,North,0,0.0,0.0,76,0.08,,,-99.99,VWS V12.07,2013-04-16 02:01:00,
2013-04-15 21:10:00,44.8,37.7,29.82,North,0,0.0,0.0,76,0.08,,,-99.99,VWS V12.07,2013-04-16 02:10:00,
2013-04-15 21:15:00,44.6,37.5,29.82,North,0,0.0,0.0,76,0.08,,,-99.99,VWS V12.07,2013-04-16 02:15:00,
2013-04-15 21:20:00,44.6,37.5,29.82,North,0,0.0,0.0,76,0.08,,,-99.99,VWS V12.07,2013-04-16 02:20:00,
2013-04-15 21:25:00,44.4,37.3,29.82,North,0,0.0,0.0,76,0.08,,,-99.99,VWS V12.07,2013-04-16 02:25:00,
2013-04-15 21:30:00,44.4,37.3,29.82,North,0,0.0,0.0,76,0.08,,,-99.99,VWS V12.07,2013-04-16 02:30:00,
2013-04-15 21:36:00,44.2,37.2,29.82,North,0,0.0,0.0,76,0.08,,,-99.99,VWS V12.07,2013-04-16 02:36:00,
2013-04-15 21:45:00,44.1,37.0,29.82,North,0,0.0,0.0,76,0.08,,,-99.99,VWS V12.07,2013-04-16 02:45:00,
2013-04-15 21:50:00,44.1,37.0,29.82,North,0,0.0,0.0,76,0.12,,,-99.99,VWS V12.07,2013-04-16 02:50:00,
2013-04-15 22:00:00,44.1,37.3,29.82,North,0,0.0,0.0,77,0.12,,,-99.99,VWS V12.07,2013-04-16 03:00:00,
2013-04-15 22:10:00,44.1,37.3,29.82,North,0,0.0,0.0,77,0.04,,,-99.99,VWS V12.07,2013-04-16 03:10:00,
2013-04-15 22:15:00,44.1,37.3,29.82,North,0,0.0,0.0,77,0.04,,,-99.99,VWS V12.07,2013-04-16 03:15:00,
2013-04-15 22:20:00,44.1,37.3,29.85,North,0,0.0,0.0,77,0.04,,,-99.99,VWS V12.07,2013-04-16 03:20:00,
2013-04-15 22:31:00,43.9,37.2,29.85,North,0,0.0,0.0,77,0.04,,,-99.99,VWS V12.07,2013-04-16 03:31:00,
2013-04-15 22:40:00,43.7,37.0,29.85,North,0,0.0,0.0,77,0.08,,,-99.99,VWS V12.07,2013-04-16 03:40:00,
2013-04-15 22:45:00,43.5,37.1,29.85,North,0,0.0,0.0,78,0.08,,,-99.99,VWS V12.07,2013-04-16 03:45:00,
2013-04-15 22:50:00,43.5,37.1,29.85,North,0,0.0,0.0,78,0.08,,,-99.99,VWS V12.07,2013-04-16 03:50:00,
2013-04-15 22:55:00,43.3,37.0,29.85,North,0,0.0,0.0,78,0.08,,,-99.99,VWS V12.07,2013-04-16 03:55:00,
2013-04-15 23:00:00,43.2,36.8,29.85,North,0,0.0,0.0,78,0.08,,,-99.99,VWS V12.07,2013-04-16 04:00:00,
2013-04-15 23:05:00,43.2,36.8,29.85,North,0,0.0,0.0,78,0.04,,,-99.99,VWS V12.07,2013-04-16 04:05:00,
2013-04-15 23:10:00,43.0,36.6,29.85,North,0,0.0,0.0,78,0.04,,,-99.99,VWS V12.07,2013-04-16 04:10:00,
2013-04-15 23:20:00,43.0,36.6,29.85,North,0,0.0,0.0,78,0.08,,,-99.99,VWS V12.07,2013-04-16 04:20:00,
2013-04-15 23:25:00,43.0,36.9,29.85,North,0,0.0,0.0,79,0.08,,,-99.99,VWS V12.07,2013-04-16 04:25:00,
2013-04-15 23:30:00,43.0,36.9,29.85,North,0,0.0,0.0,79,0.08,,,-99.99,VWS V12.07,2013-04-16 04:30:00,
2013-04-15 23:35:00,43.0,36.9,29.85,North,0,0.0,0.0,79,0.08,,,-99.99,VWS V12.07,2013-04-16 04:35:00,
2013-04-15 23:40:00,43.0,36.9,29.85,North,0,0.0,0.0,79,0.08,,,-99.99,VWS V12.07,2013-04-16 04:40:00,
2013-04-15 23:45:00,43.0,36.9,29.85,North,0,0.0,0.0,79,0.08,,,-99.99,VWS V12.07,2013-04-16 04:45:00,
2013-04-15 23:50:00,43.0,36.9,29.85,North,0,0.0,0.0,79,0.08,,,-99.99,VWS V12.07,2013-04-16 04:50:00,
2013-04-15 23:55:00,43.0,36.9,29.85,North,0,0.0,0.0,79,0.08,,,-99.99,VWS V12.07,2013-04-16 04:55:00,